Location: Ettringen
(48.1054°N, 10.6545°E)
Time: 02:18:59
(UTC+00:00)

CZ-4 R/B - Pass Details

Date: 18 November 2025
Orbit: 547 x 556 km, 97.6° (Epoch: 04 December)

Event Time Altitude Azimuth Distance (km) Brightness Sun altitude
Rises 16:58:33 0° 154° (SSE) 2,724 7.7 -13.6°
Reaches altitude 10° 17:00:42 10° 149° (SSE) 1,832 6.8 -14.0°
Maximum altitude 17:04:34 54° 72° (ENE) 677 4.4 -14.6°
Drops below altitude 10° 17:08:27 10° 355° (N) 1,841 6.9 -15.3°
Sets 17:10:37 0° 351° (N) 2,738 7.9 -15.6°
